Location: Athens-Covington-Pier
(33.9360°N, 83.4200°W)
Time: 05:39:32
(UTC-04:00)

Tiangong 2 - Visible Passes

Search period start: 19 March 2019 00:00
Search period end: 29 March 2019 00:00
Orbit: 379 x 390 km, 42.8° (Epoch: 18 March)

Date Brightness Start Highest point End Pass type
(mag) Time Alt. Az. Time Alt. Az. Time Alt. Az.
19 Mar 3.1 06:37:11 11° NW 06:39:41 23° NNE 06:42:19 10° ENE visible
20 Mar 3.6 05:40:31 18° NNE 05:40:31 18° NNE 05:42:20 10° ENE visible
21 Mar 2.6 06:16:09 21° NNW 06:17:38 33° NNE 06:20:33 10° E visible
22 Mar 4.2 05:19:39 16° ENE 05:19:39 16° ENE 05:20:37 10° ENE visible
22 Mar 1.0 06:51:53 11° WNW 06:54:58 75° SSW 06:58:09 10° SE visible
23 Mar 1.6 05:55:31 55° NNE 05:55:31 55° NNE 05:58:35 10° ESE visible
24 Mar 1.8 06:31:33 26° WSW 06:32:38 35° SW 06:35:34 10° SSE visible
25 Mar 3.6 05:35:31 17° SE 05:35:31 17° SE 05:36:20 10° SE visible
26 Mar 3.5 06:11:56 12° S 06:11:56 12° S 06:12:24 10° S visible
28 Mar 2.6 20:41:07 10° S 20:43:24 19° SE 20:43:59 18° SE visible
